Location: ???????
(55.3754°N, 39.3545°E)
Time: 11:27:31
(UTC+00:00)

BREEZE-M DEB (TANK) - Pass Details

Date: 14 April 2026
Orbit: 316 x 13397 km, 49.6° (Epoch: 9 May)

Event Time Altitude Azimuth Distance (km) Brightness Sun altitude
Rises 17:17:02 0° 248° (WSW) 2,287 6.6 -7.5°
Reaches altitude 10° 17:19:13 10° 232° (SW) 1,239 4.9 -7.8°
Maximum altitude 17:21:08 24° 173° (S) 735 3.2 -8.0°
Enters shadow 17:23:03 12° 117° (ESE) 1,299 4.0 -8.2°
